Weather History for KMKG - September, 2012

Change the Weather History Date:

Tuesday, September 18, 2012

  Actual Average Record
Temperature  
Mean Temperature 54 °F 61 °F  
Max Temperature 62 °F 71 °F 86 °F (1906)
Min Temperature 45 °F 52 °F 34 °F (1959)
Degree Days  
Heating Degree Days 11 5  
Month to date heating degree days 34 56  
Since 1 July heating degree days 46 86  
Cooling Degree Days 0 1  
Month to date cooling degree days 74 45  
Year to date cooling degree days 925 552  
Growing Degree Days 4 (Base 50)    
Moisture  
Dew Point 46 °F    
Average Humidity 64    
Maximum Humidity 89    
Minimum Humidity 39    
Precipitation  
Precipitation 0.11 in 0.13 in 2.67 in (1983)
Month to date precipitation 0.84 2.29  
Year to date precipitation 21.08 22.87  
Snow  
Snow 0.00 in 0.00 in T in (1952)
Month to date snowfall 0.0 0.0  
Since 1 July snowfall 0.0 0.0  
Since 1 September snowfall 0.0 0.0  
Snow Depth 0.00 in    
Sea Level Pressure  
Sea Level Pressure 29.82 in    
Wind  
Wind Speed 10 mph (North)    
Max Wind Speed 28 mph    
Max Gust Speed 40 mph    
Visibility 9 miles    
Events Rain    
T = Trace of Precipitation, MM = Missing Value Source: NWS Daily Summary

Daily Weather History Graph

Daily Weather History Graph

Search for Another Location

Airport or City:

Trip Planner

Search our weather history database for the weather conditions in past years. The results will help you decide how hot, cold, wet, or windy it might be!

Date:

Astronomy

Sep. 18, 2012 Rise Set
Actual Time 7:28 AM EDT 7:48 PM EDT
Civil Twilight 6:59 AM EDT 8:17 PM EDT
Nautical Twilight 6:26 AM EDT 8:50 PM EDT
Astronomical Twilight 5:51 AM EDT 9:24 PM EDT
Moon 10:34 AM EDT (9/18) 9:03 PM EDT (9/18)
Length of Visible Light 13h 17m
Length of Day
12h 20m
Waxing Crescent, 9% of the Moon is Illuminated
Sep 18
Waxing Crescent
Sep 22
First Quarter
Sep 29
Full
Oct 8
Last Quarter
Oct 15
New

Hourly Weather History & Observations

Time (EDT) Temp. Dew Point Humidity Pressure Visibility Wind Dir Wind Speed Gust Speed Precip Events Conditions
12:02 AM 59.0 °F 55.4 °F 88% 29.75 in 8.0 mi NNW 13.8 mph 23.0 mph N/A Rain Light Rain
12:55 AM 59.0 °F 55.0 °F 87% 29.73 in 10.0 mi NNW 6.9 mph - 0.03 in   Overcast
1:24 AM 59.0 °F 55.4 °F 88% 29.73 in 10.0 mi NNW 9.2 mph - N/A   Overcast
1:55 AM 57.9 °F 54.0 °F 87% 29.74 in 10.0 mi North 16.1 mph 24.2 mph N/A   Overcast
2:25 AM 57.2 °F 51.8 °F 82% 29.75 in 10.0 mi North 9.2 mph 23.0 mph N/A   Overcast
2:33 AM 55.4 °F 51.8 °F 88% 29.75 in 10.0 mi North 10.4 mph - N/A   Overcast
2:55 AM 55.0 °F 51.1 °F 86% 29.75 in 10.0 mi North 13.8 mph - N/A   Overcast
3:11 AM 55.4 °F 50.0 °F 82% 29.75 in 10.0 mi North 12.7 mph 20.7 mph N/A   Overcast
3:36 AM 53.6 °F 50.0 °F 88% 29.74 in 10.0 mi North 9.2 mph - N/A   Overcast
3:55 AM 54.0 °F 48.9 °F 83% 29.74 in 10.0 mi North 8.1 mph - N/A   Overcast
4:55 AM 54.0 °F 48.9 °F 83% 29.73 in 10.0 mi North 9.2 mph - N/A   Overcast
5:55 AM 53.1 °F 48.9 °F 86% 29.74 in 10.0 mi North 8.1 mph - N/A   Mostly Cloudy
6:55 AM 53.1 °F 48.9 °F 86% 29.75 in 10.0 mi North 8.1 mph - 0.00 in Rain Light Rain
7:55 AM 53.1 °F 50.0 °F 89% 29.77 in 5.0 mi North 10.4 mph - 0.05 in Rain Rain
8:55 AM 55.0 °F 48.9 °F 80% 29.77 in 10.0 mi North 11.5 mph - 0.01 in Rain Light Rain
9:55 AM 55.9 °F 48.0 °F 75% 29.79 in 10.0 mi North 12.7 mph - 0.00 in   Mostly Cloudy
10:55 AM 57.9 °F 46.9 °F 67% 29.80 in 10.0 mi NNE 13.8 mph 19.6 mph N/A   Mostly Cloudy
11:12 AM 55.4 °F 46.4 °F 72% 29.81 in 10.0 mi North 15.0 mph 27.6 mph 0.00 in Rain Light Rain
11:24 AM 53.6 °F 44.6 °F 72% 29.82 in 10.0 mi North 16.1 mph 21.9 mph 0.00 in Rain Light Rain
11:55 AM 55.0 °F 46.0 °F 72% 29.83 in 10.0 mi North 11.5 mph 18.4 mph 0.01 in Rain Light Rain
12:55 PM 55.0 °F 45.0 °F 69% 29.84 in 10.0 mi NNW 10.4 mph - 0.01 in   Mostly Cloudy
1:55 PM 59.0 °F 41.0 °F 51% 29.84 in 10.0 mi NNW 18.4 mph 28.8 mph N/A   Mostly Cloudy
2:55 PM 60.1 °F 35.1 °F 39% 29.85 in 10.0 mi NW 19.6 mph 27.6 mph N/A   Mostly Cloudy
3:55 PM 57.9 °F 36.0 °F 44% 29.86 in 10.0 mi NW 16.1 mph 28.8 mph N/A   Mostly Cloudy
4:55 PM 57.9 °F 33.1 °F 39% 29.88 in 10.0 mi NW 18.4 mph 26.5 mph N/A   Mostly Cloudy
5:47 PM 51.8 °F 37.4 °F 58% 29.92 in 2.0 mi NW 26.5 mph 35.7 mph 0.00 in Rain Heavy Rain
5:50 PM 48.2 °F 37.4 °F 66% 29.92 in 4.0 mi WNW 24.2 mph 40.3 mph 0.01 in Rain Rain
5:55 PM 51.1 °F 33.1 °F 50% 29.91 in 4.0 mi West 9.2 mph 40.3 mph 0.01 in   Overcast
6:55 PM 55.0 °F 39.0 °F 55% 29.92 in 10.0 mi NNW 6.9 mph - N/A   Scattered Clouds
7:55 PM 51.8 °F 39.2 °F 62% 29.92 in 10.0 mi NE 5.8 mph - N/A   Mostly Cloudy
8:55 PM 46.9 °F 42.1 °F 83% 29.95 in 10.0 mi South 3.5 mph - 0.02 in   Mostly Cloudy
9:55 PM 48.0 °F 43.0 °F 83% 29.96 in 10.0 mi ESE 4.6 mph - N/A   Overcast
10:55 PM 48.9 °F 42.1 °F 77% 29.98 in 10.0 mi ENE 3.5 mph - N/A   Overcast
11:55 PM 48.0 °F 42.1 °F 80% 29.99 in 10.0 mi Calm Calm - N/A   Overcast